FLE650 CYYZ-CYHZ

Flight info

Callsign FLE650
Flight time 1h 43m
Altitude 37000
Route DEDKI5 OLABA Q951 TALNO Q929 TOXAL DCT EBONY FUNDY5
Aircraft B38M/M-SDE1FGHILORVWXY/HB1

Departure

Time 2026-05-04 21:41
Airport Toronto Pearson International Airport (CYYZ)

Arrival

Time 2026-05-04 23:24
Airport Halifax / Stanfield International Airport (CYHZ)
Time Latitude Longitude Altitude Speed Heading
2026-05-04 21:05 43.68402 -79.62076 566 ft 0 kts 107°
2026-05-04 21:25 43.68403 -79.62080 582 ft 2 kts 107°
2026-05-04 21:25 43.68409 -79.62105 570 ft 3 kts 109°
2026-05-04 21:26 43.68416 -79.62131 569 ft 3 kts 114°
2026-05-04 21:26 43.68425 -79.62155 571 ft 3 kts 127°
2026-05-04 21:26 43.68438 -79.62172 569 ft 3 kts 164°
2026-05-04 21:26 43.68448 -79.62173 573 ft 0 kts 196°
2026-05-04 21:30 43.68447 -79.62173 566 ft 1 kts 196°
2026-05-04 21:30 43.68431 -79.62180 572 ft 4 kts 196°
2026-05-04 21:30 43.68396 -79.62193 569 ft 6 kts 193°
2026-05-04 21:31 43.68326 -79.62262 568 ft 1 kts 225°
2026-05-04 21:31 43.68316 -79.62276 569 ft 3 kts 226°
2026-05-04 21:31 43.68303 -79.62307 569 ft 5 kts 246°
2026-05-04 21:32 43.68289 -79.62364 568 ft 8 kts 251°
2026-05-04 21:32 43.68252 -79.62433 569 ft 10 kts 226°
2026-05-04 21:32 43.68196 -79.62496 570 ft 10 kts 193°
2026-05-04 21:32 43.68139 -79.62453 566 ft 10 kts 141°
2026-05-04 21:33 43.68082 -79.62381 567 ft 12 kts 138°
2026-05-04 21:33 43.68014 -79.62294 568 ft 14 kts 137°
2026-05-04 21:33 43.67939 -79.62195 573 ft 16 kts 139°
2026-05-04 21:33 43.67841 -79.62126 572 ft 16 kts 144°
2026-05-04 21:34 43.67758 -79.62022 568 ft 16 kts 137°
2026-05-04 21:34 43.67672 -79.61914 568 ft 17 kts 137°
2026-05-04 21:34 43.67581 -79.61795 569 ft 18 kts 136°
2026-05-04 21:34 43.67483 -79.61666 568 ft 21 kts 137°
2026-05-04 21:35 43.67378 -79.61529 567 ft 20 kts 136°
2026-05-04 21:35 43.67273 -79.61394 566 ft 20 kts 136°
2026-05-04 21:35 43.67178 -79.61267 566 ft 16 kts 137°
2026-05-04 21:35 43.67162 -79.61138 565 ft 17 kts 51°
2026-05-04 21:36 43.67254 -79.61004 564 ft 21 kts 46°
2026-05-04 21:36 43.67354 -79.60857 560 ft 22 kts 46°
2026-05-04 21:36 43.67460 -79.60704 569 ft 22 kts 46°
2026-05-04 21:36 43.67569 -79.60545 564 ft 23 kts 47°
2026-05-04 21:37 43.67682 -79.60382 563 ft 24 kts 45°
2026-05-04 21:37 43.67802 -79.60209 566 ft 26 kts 46°
2026-05-04 21:37 43.67921 -79.60035 566 ft 21 kts 46°
2026-05-04 21:37 43.68002 -79.59918 566 ft 11 kts 46°
2026-05-04 21:38 43.68020 -79.59818 562 ft 11 kts 120°
2026-05-04 21:38 43.68008 -79.59797 571 ft 0 kts 132°
2026-05-04 21:39 43.68005 -79.59792 571 ft 2 kts 132°
2026-05-04 21:39 43.67984 -79.59761 569 ft 8 kts 132°
2026-05-04 21:40 43.67913 -79.59721 563 ft 16 kts 206°
2026-05-04 21:40 43.67872 -79.59771 564 ft 0 kts 226°
2026-05-04 21:40 43.67870 -79.59774 567 ft 4 kts 226°
2026-05-04 21:40 43.67665 -79.60072 567 ft 81 kts 226°
2026-05-04 21:41 43.67126 -79.60856 565 ft 144 kts 227°
2026-05-04 21:41 43.66365 -79.61963 990 ft 168 kts 226°
2026-05-04 21:41 43.65545 -79.63144 1884 ft 168 kts 225°
2026-05-04 21:41 43.64700 -79.64313 2570 ft 183 kts 225°
2026-05-04 21:42 43.63742 -79.65638 3009 ft 203 kts 225°
2026-05-04 21:42 43.62700 -79.67078 3498 ft 220 kts 225°
2026-05-04 21:42 43.61590 -79.68614 4140 ft 231 kts 226°
2026-05-04 21:42 43.60438 -79.70209 4766 ft 237 kts 226°
2026-05-04 21:43 43.59272 -79.71820 4933 ft 238 kts 226°
2026-05-04 21:43 43.58098 -79.73445 4951 ft 238 kts 227°
2026-05-04 21:43 43.56932 -79.75062 5113 ft 236 kts 227°
2026-05-04 21:43 43.55702 -79.76582 5898 ft 241 kts 216°
2026-05-04 21:44 43.54127 -79.77430 6639 ft 254 kts 195°
2026-05-04 21:44 43.52315 -79.77400 7391 ft 270 kts 175°
2026-05-04 21:44 43.50522 -79.76433 8201 ft 285 kts 154°
2026-05-04 21:44 43.48992 -79.74597 8971 ft 301 kts 134°
2026-05-04 21:45 43.47922 -79.72068 9705 ft 313 kts 114°
2026-05-04 21:45 43.47496 -79.69047 10322 ft 328 kts 91°
2026-05-04 21:45 43.47979 -79.65961 10749 ft 342 kts 66°
2026-05-04 21:45 43.48967 -79.62897 11195 ft 356 kts 66°
2026-05-04 21:46 43.49945 -79.59718 11777 ft 365 kts 67°
2026-05-04 21:46 43.50698 -79.56372 12486 ft 368 kts 76°
2026-05-04 21:46 43.51338 -79.52931 13193 ft 373 kts 76°
2026-05-04 21:46 43.52013 -79.49444 13876 ft 378 kts 75°
2026-05-04 21:47 43.52705 -79.45937 14563 ft 381 kts 75°
2026-05-04 21:47 43.53434 -79.42416 15271 ft 384 kts 72°
2026-05-04 21:47 43.54233 -79.38888 15970 ft 387 kts 72°
2026-05-04 21:47 43.55034 -79.35326 16654 ft 391 kts 72°
2026-05-04 21:48 43.55842 -79.31720 17326 ft 395 kts 72°
2026-05-04 21:48 43.56652 -79.28088 17980 ft 399 kts 72°
2026-05-04 21:48 43.57471 -79.24412 18547 ft 402 kts 71°
2026-05-04 21:49 43.58199 -79.21141 19041 ft 405 kts 71°
2026-05-04 21:49 43.59027 -79.17408 19585 ft 409 kts 71°
2026-05-04 21:49 43.59861 -79.13645 20126 ft 412 kts 71°
2026-05-04 21:49 43.60700 -79.09851 20664 ft 415 kts 71°
2026-05-04 21:50 43.61262 -79.07311 21011 ft 418 kts 71°
2026-05-04 21:50 43.62101 -79.03503 21532 ft 421 kts 70°
2026-05-04 21:50 43.62955 -78.99624 22062 ft 424 kts 70°
2026-05-04 21:50 43.63816 -78.95706 22579 ft 427 kts 70°
2026-05-04 21:51 43.64680 -78.91766 23075 ft 430 kts 70°
2026-05-04 21:51 43.65550 -78.87791 23514 ft 434 kts 70°
2026-05-04 21:51 43.66423 -78.83793 23939 ft 436 kts 70°
2026-05-04 21:51 43.67301 -78.79769 24369 ft 438 kts 70°
2026-05-04 21:52 43.68182 -78.75725 24788 ft 440 kts 70°
2026-05-04 21:52 43.69492 -78.70429 25321 ft 440 kts 61°
2026-05-04 21:52 43.70350 -78.67824 25586 ft 441 kts 62°
2026-05-04 21:52 43.71614 -78.63940 25971 ft 444 kts 62°
2026-05-04 21:53 43.72884 -78.60046 26369 ft 446 kts 62°
2026-05-04 21:53 43.74162 -78.56126 26769 ft 448 kts 62°
2026-05-04 21:53 43.75445 -78.52186 27151 ft 450 kts 62°
2026-05-04 21:53 43.76732 -78.48228 27528 ft 452 kts 62°
2026-05-04 21:54 43.78024 -78.44248 27902 ft 454 kts 62°
2026-05-04 21:54 43.79322 -78.40245 28256 ft 457 kts 62°
2026-05-04 21:54 43.80624 -78.36222 28617 ft 459 kts 62°
2026-05-04 21:54 43.81910 -78.32241 28962 ft 461 kts 62°
2026-05-04 21:55 43.83222 -78.28176 29315 ft 463 kts 62°
2026-05-04 21:55 43.84536 -78.24098 29648 ft 465 kts 62°
2026-05-04 21:55 43.85852 -78.20007 29945 ft 467 kts 62°
2026-05-04 21:55 43.87176 -78.15887 30222 ft 469 kts 62°
2026-05-04 21:56 43.88506 -78.11740 30509 ft 470 kts 62°
2026-05-04 21:56 43.89835 -78.07590 30786 ft 472 kts 61°
2026-05-04 21:56 43.91170 -78.03413 31053 ft 474 kts 61°
2026-05-04 21:56 43.92509 -77.99218 31319 ft 476 kts 61°
2026-05-04 21:57 43.93852 -77.95005 31586 ft 478 kts 61°
2026-05-04 21:57 43.95198 -77.90772 31853 ft 479 kts 61°
2026-05-04 21:57 43.96544 -77.86535 32112 ft 481 kts 61°
2026-05-04 21:57 43.97876 -77.82337 32373 ft 482 kts 61°
2026-05-04 21:58 43.99227 -77.78068 32620 ft 484 kts 61°
2026-05-04 21:58 44.00582 -77.73782 32866 ft 486 kts 61°
2026-05-04 21:58 44.01942 -77.69472 33160 ft 486 kts 61°
2026-05-04 21:58 44.03298 -77.65171 33525 ft 485 kts 61°
2026-05-04 21:59 44.04648 -77.60877 33848 ft 484 kts 61°
2026-05-04 21:59 44.05994 -77.56588 34124 ft 484 kts 61°
2026-05-04 21:59 44.07340 -77.52295 34407 ft 484 kts 61°
2026-05-04 21:59 44.08683 -77.48007 34676 ft 483 kts 61°
2026-05-04 22:00 44.10022 -77.43721 34940 ft 483 kts 61°
2026-05-04 22:00 44.11358 -77.39436 35211 ft 482 kts 62°
2026-05-04 22:00 44.12691 -77.35158 35470 ft 482 kts 62°
2026-05-04 22:00 44.14025 -77.30868 35727 ft 482 kts 62°
2026-05-04 22:01 44.15356 -77.26581 35970 ft 482 kts 62°
2026-05-04 22:01 44.16683 -77.22299 36225 ft 481 kts 62°
2026-05-04 22:01 44.18006 -77.18024 36471 ft 481 kts 62°
2026-05-04 22:01 44.19329 -77.13741 36683 ft 481 kts 62°
2026-05-04 22:02 44.20635 -77.09505 36734 ft 482 kts 62°
2026-05-04 22:02 44.23265 -77.00954 36715 ft 479 kts 62°
2026-05-04 22:03 44.25889 -76.92399 36718 ft 480 kts 62°
2026-05-04 22:03 44.28507 -76.83829 36724 ft 479 kts 62°
2026-05-04 22:04 44.31115 -76.75266 36722 ft 479 kts 62°
2026-05-04 22:04 44.33716 -76.66692 36723 ft 479 kts 62°
2026-05-04 22:05 44.36320 -76.58091 36723 ft 484 kts 62°
2026-05-04 22:05 44.38950 -76.49368 36724 ft 490 kts 63°
2026-05-04 22:06 44.41580 -76.40619 36718 ft 490 kts 63°
2026-05-04 22:06 44.44232 -76.31772 36719 ft 490 kts 63°
2026-05-04 22:07 44.46862 -76.22968 36716 ft 490 kts 63°
2026-05-04 22:07 44.49576 -76.14305 36712 ft 489 kts 62°
2026-05-04 22:08 44.52312 -76.05583 36706 ft 489 kts 62°
2026-05-04 22:08 44.55042 -75.96849 36706 ft 489 kts 62°
2026-05-04 22:09 44.57761 -75.88119 36699 ft 489 kts 62°
2026-05-04 22:09 44.60473 -75.79382 36694 ft 489 kts 62°
2026-05-04 22:10 44.63179 -75.70635 36691 ft 489 kts 62°
2026-05-04 22:10 44.65765 -75.61780 36689 ft 490 kts 64°
2026-05-04 22:11 44.68222 -75.52911 36674 ft 491 kts 65°
2026-05-04 22:11 44.70653 -75.43951 36685 ft 490 kts 65°
2026-05-04 22:12 44.73166 -75.35050 36685 ft 489 kts 63°
2026-05-04 22:12 44.75778 -75.26209 36696 ft 489 kts 63°
2026-05-04 22:13 44.78375 -75.17348 36695 ft 489 kts 63°
2026-05-04 22:13 44.80957 -75.08485 36704 ft 489 kts 63°
2026-05-04 22:14 44.83536 -74.99611 36708 ft 489 kts 63°
2026-05-04 22:14 44.86106 -74.90733 36704 ft 489 kts 63°
2026-05-04 22:15 44.88669 -74.81852 36702 ft 489 kts 64°
2026-05-04 22:15 44.91211 -74.72953 36705 ft 490 kts 67°
2026-05-04 22:16 44.93184 -74.63782 36705 ft 492 kts 69°
2026-05-04 22:16 44.95216 -74.54563 36703 ft 492 kts 69°
2026-05-04 22:17 44.97257 -74.45345 36699 ft 491 kts 69°
2026-05-04 22:17 44.99259 -74.36116 36692 ft 493 kts 72°
2026-05-04 22:18 45.00989 -74.26747 36691 ft 493 kts 72°
2026-05-04 22:18 45.02743 -74.17378 36693 ft 492 kts 72°
2026-05-04 22:19 45.04491 -74.08022 36699 ft 492 kts 72°
2026-05-04 22:19 45.06230 -73.98664 36701 ft 492 kts 72°
2026-05-04 22:20 45.07760 -73.89218 36687 ft 495 kts 84°
2026-05-04 22:20 45.08141 -73.79460 36695 ft 497 kts 84°
2026-05-04 22:21 45.08534 -73.69693 36712 ft 497 kts 84°
2026-05-04 22:21 45.08912 -73.59914 36707 ft 497 kts 85°
2026-05-04 22:22 45.09245 -73.50445 36717 ft 498 kts 85°
2026-05-04 22:22 45.09581 -73.40600 36721 ft 497 kts 85°
2026-05-04 22:23 45.09904 -73.30899 36720 ft 497 kts 85°
2026-05-04 22:23 45.10222 -73.21124 36727 ft 497 kts 85°
2026-05-04 22:24 45.10530 -73.11364 36727 ft 497 kts 85°
2026-05-04 22:24 45.10830 -73.01606 36730 ft 497 kts 86°
2026-05-04 22:25 45.11123 -72.91814 36731 ft 497 kts 86°
2026-05-04 22:25 45.11407 -72.82036 36740 ft 497 kts 86°
2026-05-04 22:26 45.11682 -72.72266 36749 ft 497 kts 86°
2026-05-04 22:26 45.11949 -72.62486 36753 ft 497 kts 86°
2026-05-04 22:27 45.12208 -72.52695 36759 ft 497 kts 86°
2026-05-04 22:27 45.12459 -72.42902 36753 ft 497 kts 86°
2026-05-04 22:28 45.12701 -72.33130 36760 ft 497 kts 86°
2026-05-04 22:28 45.12935 -72.23340 36758 ft 497 kts 86°
2026-05-04 22:29 45.13161 -72.13559 36758 ft 497 kts 87°
2026-05-04 22:29 45.13377 -72.03780 36761 ft 496 kts 87°
2026-05-04 22:30 45.13586 -71.94010 36766 ft 496 kts 87°
2026-05-04 22:30 45.13786 -71.84242 36767 ft 496 kts 87°
2026-05-04 22:31 45.13977 -71.74537 36776 ft 496 kts 87°
2026-05-04 22:31 45.14163 -71.64771 36782 ft 496 kts 87°
2026-05-04 22:32 45.14087 -71.55004 36787 ft 496 kts 93°
2026-05-04 22:32 45.13688 -71.45246 36791 ft 496 kts 92°
2026-05-04 22:33 45.13330 -71.35489 36792 ft 496 kts 92°
2026-05-04 22:33 45.12969 -71.25726 36797 ft 496 kts 92°
2026-05-04 22:34 45.12601 -71.15961 36799 ft 496 kts 92°
2026-05-04 22:34 45.12224 -71.06203 36795 ft 496 kts 93°
2026-05-04 22:35 45.11838 -70.96444 36796 ft 496 kts 93°
2026-05-04 22:35 45.11512 -70.88334 36795 ft 497 kts 93°
2026-05-04 22:36 45.11110 -70.78564 36795 ft 497 kts 93°
2026-05-04 22:36 45.10700 -70.68787 36800 ft 497 kts 93°
2026-05-04 22:37 45.10283 -70.59028 36789 ft 497 kts 93°
2026-05-04 22:37 45.09856 -70.49251 36804 ft 497 kts 94°
2026-05-04 22:38 45.09422 -70.39484 36799 ft 497 kts 94°
2026-05-04 22:38 45.08979 -70.29724 36797 ft 497 kts 94°
2026-05-04 22:39 45.08530 -70.20014 36795 ft 497 kts 94°
2026-05-04 22:39 45.08071 -70.10250 36796 ft 497 kts 94°
2026-05-04 22:40 45.07603 -70.00502 36793 ft 497 kts 94°
2026-05-04 22:40 45.07127 -69.90748 36790 ft 497 kts 95°
2026-05-04 22:41 45.06644 -69.81006 36790 ft 496 kts 95°
2026-05-04 22:41 45.06152 -69.71267 36787 ft 496 kts 95°
2026-05-04 22:42 45.05653 -69.61548 36783 ft 496 kts 95°
2026-05-04 22:42 45.05145 -69.51826 36782 ft 496 kts 95°
2026-05-04 22:43 45.04629 -69.42107 36780 ft 495 kts 95°
2026-05-04 22:43 45.04104 -69.32380 36782 ft 495 kts 95°
2026-05-04 22:44 45.03573 -69.22679 36777 ft 495 kts 96°
2026-05-04 22:44 45.03033 -69.12975 36776 ft 495 kts 96°
2026-05-04 22:45 45.02485 -69.03270 36779 ft 495 kts 96°
2026-05-04 22:45 45.01651 -68.88801 36780 ft 494 kts 96°
2026-05-04 22:46 45.01084 -68.79127 36785 ft 494 kts 96°
2026-05-04 22:46 45.00507 -68.69430 36778 ft 494 kts 96°
2026-05-04 22:47 44.99924 -68.59772 36782 ft 494 kts 96°
2026-05-04 22:47 44.99333 -68.50115 36776 ft 493 kts 97°
2026-05-04 22:48 44.98733 -68.40461 36773 ft 493 kts 97°
2026-05-04 22:48 44.98130 -68.30875 36772 ft 492 kts 97°
2026-05-04 22:49 44.97517 -68.21252 36775 ft 492 kts 97°
2026-05-04 22:49 44.96895 -68.11625 36772 ft 492 kts 97°
2026-05-04 22:50 44.96265 -68.02004 36773 ft 492 kts 97°
2026-05-04 22:50 44.95627 -67.92395 36772 ft 492 kts 97°
2026-05-04 22:51 44.94981 -67.82783 36773 ft 491 kts 97°
2026-05-04 22:51 44.94328 -67.73181 36770 ft 491 kts 97°
2026-05-04 22:52 44.93667 -67.63589 36778 ft 491 kts 98°
2026-05-04 22:52 44.93000 -67.53999 36776 ft 491 kts 98°
2026-05-04 22:53 44.92326 -67.44411 36786 ft 491 kts 98°
2026-05-04 22:53 44.91644 -67.34826 36788 ft 490 kts 98°
2026-05-04 22:54 44.90960 -67.25309 36792 ft 490 kts 98°
2026-05-04 22:54 44.90306 -67.15737 36792 ft 491 kts 94°
2026-05-04 22:55 44.90243 -67.06102 36801 ft 492 kts 92°
2026-05-04 22:55 44.90225 -66.96447 36800 ft 492 kts 92°
2026-05-04 22:56 44.90204 -66.86809 36799 ft 492 kts 93°
2026-05-04 22:56 44.90175 -66.77165 36797 ft 491 kts 93°
2026-05-04 22:57 44.90139 -66.67517 36794 ft 491 kts 93°
2026-05-04 22:57 44.90094 -66.57886 36790 ft 491 kts 93°
2026-05-04 22:58 44.90041 -66.48248 36794 ft 491 kts 93°
2026-05-04 22:58 44.89980 -66.38613 36795 ft 491 kts 94°
2026-05-04 22:59 44.89911 -66.28988 36795 ft 491 kts 94°
2026-05-04 22:59 44.89835 -66.19419 36801 ft 490 kts 94°
2026-05-04 23:00 44.89749 -66.09804 36797 ft 490 kts 94°
2026-05-04 23:00 44.89656 -66.00184 36809 ft 491 kts 94°
2026-05-04 23:01 44.89607 -65.95381 36553 ft 486 kts 94°
2026-05-04 23:01 44.89556 -65.90622 35845 ft 486 kts 94°
2026-05-04 23:01 44.89503 -65.85837 35058 ft 488 kts 94°
2026-05-04 23:01 44.89447 -65.81041 34298 ft 490 kts 94°
2026-05-04 23:02 44.89390 -65.76240 33681 ft 487 kts 94°
2026-05-04 23:02 44.89331 -65.71452 32823 ft 487 kts 94°
2026-05-04 23:02 44.89270 -65.66701 32170 ft 482 kts 94°
2026-05-04 23:02 44.89210 -65.61992 31411 ft 475 kts 94°
2026-05-04 23:03 44.89148 -65.57373 30402 ft 468 kts 93°
2026-05-04 23:03 44.89086 -65.52818 29266 ft 461 kts 92°
2026-05-04 23:03 44.89018 -65.48400 28222 ft 453 kts 92°
2026-05-04 23:03 44.88951 -65.43970 27457 ft 438 kts 92°
2026-05-04 23:04 44.88885 -65.39674 26616 ft 442 kts 92°
2026-05-04 23:04 44.88817 -65.35342 25650 ft 454 kts 92°
2026-05-04 23:04 44.88746 -65.30868 24709 ft 456 kts 92°
2026-05-04 23:04 44.88672 -65.26400 23723 ft 453 kts 92°
2026-05-04 23:05 44.88598 -65.22002 22584 ft 444 kts 91°
2026-05-04 23:05 44.88524 -65.17682 21453 ft 435 kts 91°
2026-05-04 23:05 44.88449 -65.13458 20379 ft 428 kts 91°
2026-05-04 23:05 44.88375 -65.09299 19294 ft 422 kts 91°
2026-05-04 23:06 44.88299 -65.05176 18205 ft 418 kts 91°
2026-05-04 23:06 44.88224 -65.01116 17211 ft 409 kts 91°
2026-05-04 23:06 44.88149 -64.97142 16326 ft 401 kts 90°
2026-05-04 23:06 44.88074 -64.93253 15535 ft 393 kts 90°
2026-05-04 23:07 44.87997 -64.89348 14729 ft 403 kts 90°
2026-05-04 23:07 44.88140 -64.85415 13944 ft 404 kts 81°
2026-05-04 23:07 44.88467 -64.81462 13467 ft 406 kts 82°
2026-05-04 23:07 44.88749 -64.77633 13352 ft 379 kts 83°
2026-05-04 23:08 44.88999 -64.74042 13103 ft 357 kts 83°
2026-05-04 23:08 44.89227 -64.70646 12820 ft 339 kts 83°
2026-05-04 23:08 44.89440 -64.67423 12592 ft 321 kts 83°
2026-05-04 23:08 44.89636 -64.64409 12395 ft 304 kts 83°
2026-05-04 23:09 44.89823 -64.61516 12210 ft 289 kts 83°
2026-05-04 23:09 44.90001 -64.58767 12024 ft 274 kts 83°
2026-05-04 23:09 44.90169 -64.56138 11884 ft 268 kts 83°
2026-05-04 23:09 44.90340 -64.53458 11698 ft 279 kts 83°
2026-05-04 23:10 44.90515 -64.50702 11548 ft 284 kts 83°
2026-05-04 23:10 44.90691 -64.47929 11395 ft 284 kts 83°
2026-05-04 23:10 44.90866 -64.45148 11273 ft 284 kts 84°
2026-05-04 23:10 44.91040 -64.42376 11141 ft 284 kts 84°
2026-05-04 23:11 44.91214 -64.39606 11009 ft 282 kts 84°
2026-05-04 23:11 44.91385 -64.36851 10865 ft 281 kts 84°
2026-05-04 23:11 44.91556 -64.34102 10740 ft 281 kts 85°
2026-05-04 23:11 44.91725 -64.31363 10623 ft 280 kts 85°
2026-05-04 23:12 44.91895 -64.28621 10494 ft 279 kts 85°
2026-05-04 23:12 44.92062 -64.25889 10368 ft 279 kts 86°
2026-05-04 23:12 44.92229 -64.23169 10252 ft 278 kts 86°
2026-05-04 23:12 44.92394 -64.20449 10136 ft 278 kts 86°
2026-05-04 23:13 44.92559 -64.17738 9991 ft 277 kts 87°
2026-05-04 23:13 44.92721 -64.15062 9722 ft 275 kts 87°
2026-05-04 23:13 44.92883 -64.12373 9471 ft 275 kts 87°
2026-05-04 23:13 44.93042 -64.09750 9194 ft 273 kts 86°
2026-05-04 23:14 44.93200 -64.07098 8887 ft 270 kts 86°
2026-05-04 23:14 44.93358 -64.04466 8614 ft 268 kts 85°
2026-05-04 23:14 44.93513 -64.01844 8400 ft 267 kts 85°
2026-05-04 23:14 44.93666 -63.99245 8142 ft 265 kts 85°
2026-05-04 23:15 44.93818 -63.96663 7877 ft 262 kts 85°
2026-05-04 23:15 44.93968 -63.94103 7626 ft 261 kts 84°
2026-05-04 23:15 44.94115 -63.91562 7393 ft 259 kts 84°
2026-05-04 23:15 44.94262 -63.89036 7153 ft 257 kts 84°
2026-05-04 23:16 44.94407 -63.86538 6912 ft 254 kts 84°
2026-05-04 23:16 44.94550 -63.84052 6671 ft 254 kts 84°
2026-05-04 23:16 44.94693 -63.81575 6431 ft 252 kts 84°
2026-05-04 23:16 44.94832 -63.79131 6193 ft 248 kts 84°
2026-05-04 23:17 44.94968 -63.76755 5944 ft 244 kts 84°
2026-05-04 23:17 44.95103 -63.74393 5743 ft 237 kts 84°
2026-05-04 23:17 44.95230 -63.72122 5645 ft 227 kts 83°
2026-05-04 23:17 44.95353 -63.69944 5537 ft 218 kts 83°
2026-05-04 23:18 44.95471 -63.67860 5438 ft 208 kts 83°
2026-05-04 23:18 44.95582 -63.65867 5331 ft 201 kts 83°
2026-05-04 23:18 44.95695 -63.63870 5254 ft 207 kts 82°
2026-05-04 23:18 44.95808 -63.61822 5150 ft 210 kts 82°
2026-05-04 23:19 44.95924 -63.59758 5033 ft 211 kts 81°
2026-05-04 23:19 44.96389 -63.57853 4843 ft 205 kts 50°
2026-05-04 23:19 44.97443 -63.56516 4694 ft 205 kts 36°
2026-05-04 23:19 44.98577 -63.55323 4530 ft 206 kts 36°
2026-05-04 23:20 44.99719 -63.54108 4333 ft 205 kts 40°
2026-05-04 23:20 45.00649 -63.52583 4032 ft 207 kts 55°
2026-05-04 23:20 45.01203 -63.50730 3829 ft 203 kts 71°
2026-05-04 23:20 45.01312 -63.48756 3569 ft 203 kts 89°
2026-05-04 23:21 45.00973 -63.46820 3284 ft 205 kts 108°
2026-05-04 23:21 45.00208 -63.45192 2993 ft 193 kts 128°
2026-05-04 23:21 44.99163 -63.44035 2693 ft 192 kts 146°
2026-05-04 23:21 44.98350 -63.43528 2537 ft 195 kts 159°
2026-05-04 23:22 44.96536 -63.43262 2239 ft 197 kts 188°
2026-05-04 23:22 44.95659 -63.43556 2055 ft 194 kts 204°
2026-05-04 23:22 44.94509 -63.44473 1862 ft 188 kts 223°
2026-05-04 23:22 44.93511 -63.45580 1859 ft 172 kts 224°
2026-05-04 23:23 44.92618 -63.46635 1646 ft 164 kts 227°
2026-05-04 23:23 44.91738 -63.47592 1281 ft 155 kts 222°
2026-05-04 23:23 44.90881 -63.48414 1272 ft 146 kts 220°
2026-05-04 23:23 44.90069 -63.49223 870 ft 140 kts 223°
2026-05-04 23:24 44.89301 -63.50012 592 ft 133 kts 220°
2026-05-04 23:24 44.88535 -63.50772 461 ft 135 kts 220°
2026-05-04 23:24 44.87909 -63.51405 453 ft 76 kts 215°
2026-05-04 23:24 44.87530 -63.51783 452 ft 32 kts 215°
2026-05-04 23:25 44.87443 -63.51975 453 ft 3 kts 256°
2026-05-04 23:25 44.87441 -63.51998 453 ft 3 kts 267°
2026-05-04 23:25 44.87449 -63.52051 454 ft 3 kts 294°
2026-05-04 23:25 44.87469 -63.52093 454 ft 8 kts 307°
2026-05-04 23:26 44.87541 -63.52091 454 ft 17 kts 30°
2026-05-04 23:26 44.87670 -63.51964 454 ft 28 kts 35°
2026-05-04 23:26 44.87833 -63.51801 454 ft 28 kts 36°
2026-05-04 23:26 44.88005 -63.51630 454 ft 29 kts 34°
2026-05-04 23:27 44.88167 -63.51474 454 ft 25 kts 35°
2026-05-04 23:27 44.88304 -63.51337 454 ft 22 kts 35°
2026-05-04 23:27 44.88399 -63.51235 454 ft 12 kts 38°
2026-05-04 23:27 44.88485 -63.51212 454 ft 14 kts 353°
2026-05-04 23:28 44.88591 -63.51240 454 ft 17 kts 349°
2026-05-04 23:28 44.88716 -63.51270 454 ft 17 kts 351°
2026-05-04 23:28 44.88801 -63.51290 454 ft 9 kts 347°
2026-05-04 23:28 44.88862 -63.51311 454 ft 4 kts 343°
2026-05-04 23:29 44.88880 -63.51344 454 ft 5 kts 272°
2026-05-04 23:29 44.88871 -63.51383 454 ft 1 kts 251°
2026-05-04 23:29 44.88864 -63.51401 454 ft 3 kts 239°
2026-05-04 23:29 44.88855 -63.51422 454 ft 2 kts 239°
2026-05-04 23:30 44.88853 -63.51428 454 ft 0 kts 239°